Location: Altenhof
(50.2418°N, 10.8789°E)
Time: 02:37:25
(UTC+00:00)

STARLINK-1196 - Pass Details

Date: 18 February 2020
Orbit: 379 x 380 km, 53.0° (Epoch: 05 April)

Event Time Altitude Azimuth Distance (km) Brightness Sun altitude
Exits shadow 05:19:16 16° 294° (WNW) 1,103 4.6 -10.8°
Maximum altitude 05:21:36 57° 11° (N) 465 3.3 -10.5°
Drops below altitude 10° 05:24:44 10° 91° (E) 1,420 7.4 -10.0°
Sets 05:26:49 0° 96° (E) 2,273 9.2 -9.6°
